Location: Springville
(37.3745°N, 89.2676°W)
Time: 00:22:11
(UTC+00:00)

Cosmos 2369 - Pass Details

Date: 29 October 2020
Orbit: 841 x 854 km, 71.0° (Epoch: 03 December)

Event Time Altitude Azimuth Distance (km) Brightness Sun altitude
Rises 23:29:16 0° 176° (S) 3,406 7.0 -6.1°
Reaches altitude 10° 23:31:54 10° 167° (SSE) 2,473 6.1 -6.6°
Maximum altitude 23:36:58 34° 104° (ESE) 1,365 4.4 -7.6°
Drops below altitude 10° 23:42:02 10° 41° (NE) 2,481 5.7 -8.6°
Sets 23:44:41 0° 32° (NNE) 3,419 6.5 -9.1°
